Flag for France Weather past 2 weeks in Strasbourg, France

Now
59 °F

Clear.


Feels Like: 60 °F
Forecast: 60 / 78 °F
Wind: 3 mph from Northwest

Location: Strasbourg Airport

Current Time: Sep 17, 2014 at 2:12:53 AM

Latest Report: Sep 17, 2014 at 1:30 AM


Visibility: N/A

Pressure: 29.92 "Hg

Humidity: 94%

Dew point: 57 °F

Location of StrasbourgLocation

Historic Weather in Strasbourg — Graph

°F

Strasbourg temperature yesterday

Maximum temperature yesterday: 77 °F (at 4:30 PM)
Minimum temperature yesterday: 54 °F (at 4:30 AM)
Average temperature yesterday: 63 °F

Past Weeks' High & Low Weather Summary

 TemperatureHumidityPressure
High79 °F (Sep 6, 1:30 PM)100% (Sep 5, 1:30 AM)30.15 "Hg (Sep 5, 1:30 AM)
Low50 °F (Sep 11, 5:30 AM)46% (Sep 10, 5:00 PM)29.89 "Hg (Sep 6, 2:30 PM)
Average63 °F80%30.03 "Hg
* Reported Midnight between Sep 1 and Sep 2 — Sep 17 12:30 AM, Strasbourg, Weather by CustomWeather, © 2014

Note: Actual official high and low records may vary slightly from our data, if they occured in-between our weather recording intervals... More about our weather records

Advertising

Strasbourg weather history for previous 24 hours

 ConditionsComfort  
Time TempWeatherWind HumidityBarometerVisibility
12:30 AM
Sep 17
59 °FClear.5 mph94%29.92 "HgN/A
12:00 AM59 °FClear.3 mph94%29.92 "HgN/A
11:30 PM
Sep 16
59 °FClear.3 mph94%29.92 "HgN/A
11:00 PM61 °FPassing clouds.3 mph88%29.92 "HgN/A
10:30 PM63 °FClear.2 mph83%29.92 "HgN/A
10:00 PM63 °FClear.1 mph83%29.92 "HgN/A
9:30 PM63 °FClear.2 mph88%29.92 "HgN/A
9:00 PM64 °FClear.3 mph83%29.92 "HgN/A
8:30 PM64 °FClear.3 mph83%29.92 "HgN/A
8:00 PM66 °FClear.3 mph78%29.92 "HgN/A
7:30 PM70 °FClear.3 mph69%29.92 "HgN/A
7:00 PM73 °FClear.7 mph61%29.92 "HgN/A
6:30 PM75 °FClear.6 mph61%29.92 "HgN/A
6:00 PM75 °FClear.6 mph57%29.92 "HgN/A
5:30 PM75 °FClear.6 mph61%29.92 "HgN/A
5:00 PM77 °FClear.6 mph57%29.92 "HgN/A
4:30 PM77 °FClear.6 mph57%29.92 "HgN/A
4:00 PM75 °FClear.5 mph61%29.95 "HgN/A
3:30 PM75 °FClear.5 mph61%29.95 "HgN/A
3:00 PM75 °FClear.3 mph61%29.95 "HgN/A
2:30 PM73 °FClear.3 mph69%29.95 "HgN/A
2:00 PM72 °FClear.2 mph73%29.95 "HgN/A
1:30 PM70 °FClear.3 mph73%29.98 "HgN/A
1:00 PM68 °FPassing clouds.2 mph78%29.98 "HgN/A
12:30 PM64 °FPartly sunny.2 mph83%29.98 "Hg5 mi
12:00 PM63 °FLow clouds.No wind94%30.01 "Hg4 mi
11:30 AM61 °FFog.2 mph94%30.01 "Hg3 mi
11:00 AM59 °FFog.2 mph100%30.01 "Hg2 mi
10:30 AM59 °FFog.1 mph94%30.01 "Hg1 mi
10:00 AM57 °FFog.1 mph100%30.01 "Hg1 mi
9:30 AM57 °FFog.2 mph100%30.01 "Hg0 mi
9:00 AM57 °FFog.No wind100%29.98 "Hg0 mi
8:30 AM57 °FFog.2 mph94%29.98 "Hg0 mi
8:00 AM57 °FFog.2 mph100%29.98 "Hg0 mi
7:30 AM57 °FFog.2 mph94%29.98 "Hg0 mi
7:00 AM55 °FFog.2 mph100%29.98 "Hg1 mi
6:30 AM55 °FPassing clouds.No wind94%29.98 "Hg6 mi
6:00 AM54 °FPassing clouds.2 mph94%29.98 "Hg4 mi
5:30 AM54 °FPassing clouds.No wind94%29.98 "Hg6 mi
5:00 AM54 °FClear.1 mph94%29.98 "Hg4 mi
4:30 AM54 °FClear.No wind100%29.98 "Hg6 mi
4:00 AM55 °FClear.2 mph94%29.98 "Hg6 mi
3:00 AM55 °FClear.3 mph100%29.98 "HgN/A
2:30 AM55 °FClear.2 mph100%29.98 "HgN/A
2:00 AM57 °FClear.2 mph94%29.98 "Hg6 mi
Weather by CustomWeather, © 2014

See weather overviewHow to use our weather pages